Regional Weather Roundup
Issued by NWS Binghamton, NY

Current Version | Previous Version | Text Only | Print | Product List | Glossary On
Versions: 1 2 3 4 5 6 7 8 9 10 11 12 13 14 15 16 17 18 19 20 21 22 23 24 25 26 27 28 29 30 31 32 33 34 35 36 37 38 39 40 41 42 43 44 45 46 47 48 49 50
009
ASUS41 KBGM 181510
RWRBGM

REGIONAL WEATHER ROUNDUP
NATIONAL WEATHER SERVICE BINGHAMTON NY
1000 AM EST THU JAN 18 2018

Note: "fair" indicates few or no clouds below 12,000 feet with no
significant weather and/or obstructions to visibility.

* = Station(s) that does not report precipitation, such as rain,
snow, etc, also no thunder or fog.

NYZ009-015>018-022>025-036-037-044>046-055>057-062-181600
...Central New York...

CITY           SKY/WX    TMP DP  RH WIND       PRES   REMARKS
Binghamton     FAIR      10   3  73 SW8       29.98R WCI  -2
Cortland       PTSUNNY    5   5 100 CALM      30.04R FOG
Dansville      CLOUDY    18   6  59 W7        30.08R WCI   9
Elmira         FAIR      13   8  81 SW5       30.07R WCI   5
Seneca Falls   CLOUDY    19   9  63 W13       30.10S WCI   7
Ithaca         FAIR      16   7  67 W9        30.06R WCI   4
Hornell        CLOUDY    16   7  67 W15       30.09R WCI   1
Monticello     FAIR      16   6  65 W12       29.98F WCI   3
Penn Yan       CLOUDY    18   5  57 W13G21    30.06R WCI   5
Rome           LGT SNOW   7   5  91 CALM      30.09R FOG
Sidney         SUNNY      1   0  92 CALM      30.06S
Syracuse       CLOUDY    17   9  70 SW15      30.07R WCI   2
$$

PAZ038>040-043-044-047-048-072-181600
...Northeast Pennsylvania...

CITY           SKY/WX    TMP DP  RH WIND       PRES   REMARKS
Hazleton       FAIR      18   5  57 W10G21    30.04R WCI   6
Scranton       FAIR      12   5  73 SW8       30.07R WCI   0
$$
&&
KEY
WCI = Wind Chill Index
VSB = Visibility
HX  = Heat Index
$$




USA.gov is the U.S. government's official web portal to all federal, state and local government web resources and services.